Showing default

QIANFAN-48, 62249

Orbit data source: Space-Track

QIANFAN-48, 62249 is a Chinese payload satellite in LEO that was launched on Thu, 05 Dec 2024 UTC via a CHANG ZHENG 6A launch vehicle from the Taiyaun Space Center, China (TSC). Payloads include a variety of satellites, spacecraft, and rockets equipped with specific instruments for various scientific and technological missions. These include communications satellites like Starlink; space stations such as the ISS; scientific satellites like the Hubble; Earth observation satellites from companies like Planet Labs, Umbra, and HawkEye 360; GPS; miniature CubeSats for education and research; and military/defense satellites.

Loading next visibility...
QIANFAN-48 details
Identifier
62249, 2024-232N
Orbit
LEO
Last TLE update11 hours ago
Origin
Flag of CNYUANX (CN / PRC)
ManufacturerSECM
MissionOperational Commercial Communications
Bus & MotorQIANFAN, Unknown motor
Mass300 kg wet, ~300 kg dry
Launch date (UTC)
2024-12-05 (2 months ago)
Launch vehicle
CHANG ZHENG 6A
Launch site
Taiyaun Space Center, China (TSC)
Object type
Payload
Rocket body
Debris
Shape & HBRBox + 1 Pan, 10 m
Radar Cross Section13.200 m², Large (>1 m²)

Expand to show TLE details & history

TLE from 11 hours ago
0 QIANFAN-48
1 62249U 24232N   25035.81562123  .00000275  00000-0  12256-3 0  9992
2 62249  88.9887  73.0407 0017853  27.4541 332.7588 14.19870883 57110
Epoch: 2025-02-04T19:34Z
Definitive object data (Epoch: 2025-02-04T19:34:29.674Z)
Latitude-0.00003°
Longitude4.20156°
Altitude817.41 km
Speed7.45 km/s
True Right ascension04h 52m 09s
True Declination0° 00' 00"
Sunlit
Object was in daylight at TLE epoch
Visualization TLE readout
Latitude-40.24432°
Longitude-175.00029°
Altitude853.759 km
Speed7.418 km/s
Apparent Right ascension18h 43m 48s
Apparent Declination-43° 42' 58"
Sunlit
Object is in daylight
Visualization observer readout
Local Sidereal Time08:47:34
Azimuth109.592° ESE
Elevation-66.766°
Doppler factor1
Orbital elements
Apogee altitude835.597 km
Perigee altitude809.885 km
Semi-major axis7,200.878 km
Eccentricity0.0017853
Inclination88.9887°
RAAN73.0407°
Arg. of periapsis27.4541°
True anomaly332.66497°
Mean anomaly332.7588°
Eccentric anomaly332.7119°
Mean motion3.55193 °/min
BSTAR0.00012256
Orbital period101.35 mins
Loading maneuver chart data...
Loading historical data...
Loading historical data...
Loading historical data...
Loading historical data...
Loading historical data...
Loading historical data...
Loading historical data...

QIANFAN-48 Visibility forecast

Observer location: undefined°, undefined

Span
Click to sort rows by Start time (UTC) header in descending order
Start Az.
Max El. time (UTC)
Max El. Az.
Max El.
End time (UTC)
End Az.
9 mins2025-02-05 14:46:21.278Z357.742° N2025-02-05 14:50:21.278Z238.623° WSW44.513°2025-02-05 14:55:21.278Z186.422° SSW
8 mins2025-02-06 02:09:21.278Z140.088° SSE2025-02-06 02:12:21.278Z86.899° E32.938°2025-02-06 02:17:21.278Z14.767° NNE
6 mins2025-02-06 03:51:21.278Z240.311° WSW2025-02-06 03:54:21.278Z283.879° WNW21.127°2025-02-06 03:57:21.278Z323.311° NNW
|